Location: Roussillon
(43.9008°N, 5.2947°E)
Time: 07:04:49
(UTC+00:00)

USA 229 DEB - Pass Details

Date: 07 June 2020
Orbit: 983 x 1229 km, 63.4° (Epoch: 24 June)

Event Time Altitude Azimuth Distance (km) Brightness Sun altitude
Rises 01:06:59 0° 323° (NW) 3,957 7.1 -20.2°
Reaches altitude 10° 01:09:38 10° 325° (NW) 3,029 6.5 -20.1°
Maximum altitude 01:16:56 78° 52° (NE) 1,212 4.0 -19.5°
Drops below altitude 10° 01:24:34 10° 139° (SE) 3,158 5.9 -19.0°
Sets 01:27:22 0° 140° (SE) 4,134 6.5 -18.7°
